Time,TemperatureF,DewpointF,PressureIn,WindDirection,WindDirectionDegrees,WindSpeedMPH,WindSpeedGustMPH,Humidity,HourlyPrecipIn,Conditions,Clouds,dailyrainin,SolarRadiationWatts/m^2,SoftwareType,DateUTC
2013-06-06 00:02:00,61.0,46.0,-100.00,SSE,156,0.0,5.0,58,0.00,,,0.00,1.000000,,2013-06-06 07:02:00,
2013-06-06 00:12:00,61.0,46.0,-100.00,SSE,156,0.0,5.0,58,0.00,,,0.00,1.000000,,2013-06-06 07:12:00,
2013-06-06 00:22:00,61.0,46.0,-100.00,SSE,156,0.0,5.0,58,0.00,,,0.00,1.000000,,2013-06-06 07:22:00,
2013-06-06 00:52:00,59.0,46.0,-100.00,ENE,57,0.0,2.0,61,0.00,,,0.00,1.000000,,2013-06-06 07:52:00,
2013-06-06 01:02:00,59.0,46.0,-100.00,ENE,57,0.0,2.0,61,0.00,,,0.00,1.000000,,2013-06-06 08:02:00,
2013-06-06 01:12:00,59.0,46.0,-100.00,ENE,57,0.0,2.0,61,0.00,,,0.00,1.000000,,2013-06-06 08:12:00,
2013-06-06 01:22:00,59.0,46.0,-100.00,ENE,57,0.0,2.0,61,0.00,,,0.00,1.000000,,2013-06-06 08:22:00,
2013-06-06 01:52:00,58.0,45.0,-100.00,ENE,68,0.0,2.0,63,-99.99,,,0.00,1.000000,,2013-06-06 08:52:00,
2013-06-06 02:02:00,58.0,45.0,-100.00,ENE,68,0.0,2.0,63,-99.99,,,0.00,1.000000,,2013-06-06 09:02:00,
2013-06-06 02:53:00,58.0,45.0,-100.00,ENE,62,0.0,2.0,63,-99.99,,,0.00,1.000000,,2013-06-06 09:53:00,
2013-06-06 03:03:00,58.0,45.0,-100.00,ENE,62,0.0,2.0,63,-99.99,,,0.00,1.000000,,2013-06-06 10:03:00,
2013-06-06 03:42:00,57.0,44.0,-100.00,ESE,117,0.0,2.0,61,-99.99,,,0.00,1.000000,,2013-06-06 10:42:00,
2013-06-06 03:53:00,57.0,44.0,-100.00,ESE,117,0.0,2.0,61,-99.99,,,0.00,1.000000,,2013-06-06 10:53:00,
2013-06-06 04:02:00,57.0,44.0,-100.00,ESE,117,0.0,2.0,61,-99.99,,,0.00,1.000000,,2013-06-06 11:02:00,
2013-06-06 04:52:00,57.0,42.0,-100.00,SSW,193,0.0,2.0,57,-99.99,,,0.00,1.000000,,2013-06-06 11:52:00,
2013-06-06 05:02:00,57.0,42.0,-100.00,SSW,193,0.0,2.0,57,-99.99,,,0.00,1.000000,,2013-06-06 12:02:00,
2013-06-06 05:53:00,55.0,43.0,-100.00,West,259,2.0,3.0,63,-99.99,,,0.00,1.000000,,2013-06-06 12:53:00,
2013-06-06 06:03:00,55.0,43.0,-100.00,West,259,2.0,3.0,63,-99.99,,,0.00,1.000000,,2013-06-06 13:03:00,
2013-06-06 06:53:00,54.0,46.0,-100.00,SW,224,3.0,5.0,74,-99.99,,,0.00,19.000000,,2013-06-06 13:53:00,
2013-06-06 07:03:00,54.0,46.0,-100.00,SW,224,3.0,5.0,74,-99.99,,,0.00,19.000000,,2013-06-06 14:03:00,
2013-06-06 07:53:00,57.0,47.0,-100.00,SSW,196,3.0,5.0,69,-99.99,,,0.00,126.000000,,2013-06-06 14:53:00,
2013-06-06 08:03:00,57.0,47.0,-100.00,SSW,196,3.0,5.0,69,-99.99,,,0.00,126.000000,,2013-06-06 15:03:00,
2013-06-06 08:43:00,63.0,48.0,-100.00,SSW,209,2.0,4.0,58,0.00,,,0.00,295.000000,,2013-06-06 15:43:00,
2013-06-06 08:53:00,63.0,48.0,-100.00,SSW,209,2.0,4.0,58,0.00,,,0.00,295.000000,,2013-06-06 15:53:00,
2013-06-06 09:03:00,63.0,48.0,-100.00,SSW,209,2.0,4.0,58,0.00,,,0.00,295.000000,,2013-06-06 16:03:00,
2013-06-06 09:12:00,63.0,48.0,-100.00,SSW,209,2.0,4.0,58,0.00,,,0.00,295.000000,,2013-06-06 16:12:00,
2013-06-06 09:22:00,63.0,48.0,-100.00,SSW,209,2.0,4.0,58,0.00,,,0.00,295.000000,,2013-06-06 16:22:00,
2013-06-06 09:53:00,66.0,49.0,-100.00,West,267,2.0,5.0,54,0.00,,,0.00,365.000000,,2013-06-06 16:53:00,
2013-06-06 10:03:00,66.0,49.0,-100.00,West,267,2.0,5.0,54,0.00,,,0.00,365.000000,,2013-06-06 17:03:00,
2013-06-06 10:12:00,66.0,49.0,-100.00,West,267,2.0,5.0,54,0.00,,,0.00,365.000000,,2013-06-06 17:12:00,
2013-06-06 10:22:00,66.0,49.0,-100.00,West,267,2.0,5.0,54,0.00,,,0.00,365.000000,,2013-06-06 17:22:00,
2013-06-06 10:43:00,73.0,47.0,-100.00,SSE,168,3.0,7.0,40,0.00,,,-99.99,695.000000,,2013-06-06 17:43:00,
2013-06-06 10:53:00,73.0,47.0,-100.00,SSE,168,3.0,7.0,40,0.00,,,-99.99,695.000000,,2013-06-06 17:53:00,
2013-06-06 11:03:00,73.0,47.0,-100.00,SSE,168,3.0,7.0,40,0.00,,,-99.99,695.000000,,2013-06-06 18:03:00,
2013-06-06 11:12:00,73.0,47.0,-100.00,SSE,168,3.0,7.0,40,0.00,,,-99.99,695.000000,,2013-06-06 18:12:00,
2013-06-06 11:22:00,73.0,47.0,-100.00,SSE,168,3.0,7.0,40,0.00,,,-99.99,695.000000,,2013-06-06 18:22:00,
2013-06-06 11:43:00,77.0,46.0,-100.00,West,262,4.0,10.0,34,0.00,,,-99.99,829.000000,,2013-06-06 18:43:00,
2013-06-06 11:53:00,77.0,46.0,-100.00,West,262,4.0,10.0,34,0.00,,,-99.99,829.000000,,2013-06-06 18:53:00,
2013-06-06 12:02:00,77.0,46.0,-100.00,West,262,4.0,10.0,34,0.00,,,-99.99,829.000000,,2013-06-06 19:02:00,
2013-06-06 12:12:00,77.0,46.0,-100.00,West,262,4.0,10.0,34,0.00,,,-99.99,829.000000,,2013-06-06 19:12:00,
2013-06-06 12:23:00,77.0,46.0,-100.00,West,262,4.0,10.0,34,0.00,,,-99.99,829.000000,,2013-06-06 19:23:00,
2013-06-06 12:43:00,82.0,46.0,-100.00,South,191,3.0,9.0,28,0.00,,,0.00,906.000000,,2013-06-06 19:43:00,
2013-06-06 12:53:00,82.0,46.0,-100.00,South,191,3.0,9.0,28,0.00,,,0.00,906.000000,,2013-06-06 19:53:00,
2013-06-06 13:02:00,82.0,46.0,-100.00,South,191,3.0,9.0,28,0.00,,,0.00,906.000000,,2013-06-06 20:02:00,
2013-06-06 13:12:00,82.0,46.0,-100.00,South,191,3.0,9.0,28,0.00,,,0.00,906.000000,,2013-06-06 20:12:00,
2013-06-06 13:22:00,82.0,46.0,-100.00,South,191,3.0,9.0,28,0.00,,,0.00,906.000000,,2013-06-06 20:22:00,
2013-06-06 13:53:00,83.0,44.0,-100.00,North,350,4.0,10.0,25,0.00,,,0.00,942.000000,,2013-06-06 20:53:00,
2013-06-06 14:03:00,83.0,44.0,-100.00,North,350,4.0,10.0,25,0.00,,,0.00,942.000000,,2013-06-06 21:03:00,
2013-06-06 14:12:00,83.0,44.0,-100.00,North,350,4.0,10.0,25,0.00,,,0.00,942.000000,,2013-06-06 21:12:00,
2013-06-06 14:22:00,83.0,44.0,-100.00,North,350,4.0,10.0,25,0.00,,,0.00,942.000000,,2013-06-06 21:22:00,
2013-06-06 14:53:00,86.0,40.0,-100.00,WNW,284,4.0,8.0,20,0.00,,,0.00,924.000000,,2013-06-06 21:53:00,
2013-06-06 15:02:00,86.0,40.0,-100.00,WNW,284,4.0,8.0,20,0.00,,,0.00,924.000000,,2013-06-06 22:02:00,
2013-06-06 15:12:00,86.0,40.0,-100.00,WNW,284,4.0,8.0,20,0.00,,,0.00,924.000000,,2013-06-06 22:12:00,
2013-06-06 15:23:00,86.0,40.0,-100.00,WNW,284,4.0,8.0,20,0.00,,,0.00,924.000000,,2013-06-06 22:23:00,
2013-06-06 15:53:00,86.0,45.0,-100.00,NNE,16,4.0,12.0,24,0.00,,,0.00,810.000000,,2013-06-06 22:53:00,
2013-06-06 16:02:00,86.0,45.0,-100.00,NNE,16,4.0,12.0,24,0.00,,,0.00,810.000000,,2013-06-06 23:02:00,
2013-06-06 16:12:00,86.0,45.0,-100.00,NNE,16,4.0,12.0,24,0.00,,,0.00,810.000000,,2013-06-06 23:12:00,
2013-06-06 16:22:00,86.0,45.0,-100.00,NNE,16,4.0,12.0,24,0.00,,,0.00,810.000000,,2013-06-06 23:22:00,
2013-06-06 16:52:00,86.0,45.0,-100.00,NNW,337,4.0,10.0,24,0.00,,,0.00,739.000000,,2013-06-06 23:52:00,
2013-06-06 17:02:00,86.0,45.0,-100.00,NNW,337,4.0,10.0,24,0.00,,,0.00,739.000000,,2013-06-07 00:02:00,
2013-06-06 17:12:00,86.0,45.0,-100.00,NNW,337,4.0,10.0,24,0.00,,,0.00,739.000000,,2013-06-07 00:12:00,
2013-06-06 17:22:00,86.0,45.0,-100.00,NNW,337,4.0,10.0,24,0.00,,,0.00,739.000000,,2013-06-07 00:22:00,
2013-06-06 17:52:00,84.0,41.0,-100.00,NNW,344,4.0,11.0,22,0.00,,,0.00,619.000000,,2013-06-07 00:52:00,
2013-06-06 18:02:00,84.0,41.0,-100.00,NNW,344,4.0,11.0,22,0.00,,,0.00,619.000000,,2013-06-07 01:02:00,
2013-06-06 18:12:00,84.0,41.0,-100.00,NNW,344,4.0,11.0,22,0.00,,,0.00,619.000000,,2013-06-07 01:12:00,
2013-06-06 18:22:00,84.0,41.0,-100.00,NNW,344,4.0,11.0,22,0.00,,,0.00,619.000000,,2013-06-07 01:22:00,
2013-06-06 18:42:00,82.0,42.0,-100.00,NNW,339,4.0,11.0,24,0.00,,,0.00,447.000000,,2013-06-07 01:42:00,
2013-06-06 18:52:00,82.0,42.0,-100.00,NNW,339,4.0,11.0,24,0.00,,,0.00,447.000000,,2013-06-07 01:52:00,
2013-06-06 19:02:00,82.0,42.0,-100.00,NNW,339,4.0,11.0,24,0.00,,,0.00,447.000000,,2013-06-07 02:02:00,
2013-06-06 19:12:00,82.0,42.0,-100.00,NNW,339,4.0,11.0,24,0.00,,,0.00,447.000000,,2013-06-07 02:12:00,
2013-06-06 19:21:00,82.0,42.0,-100.00,NNW,339,4.0,11.0,24,0.00,,,0.00,447.000000,,2013-06-07 02:21:00,
2013-06-06 19:52:00,76.0,48.0,-100.00,North,355,4.0,13.0,37,0.00,,,0.00,178.000000,,2013-06-07 02:52:00,
2013-06-06 20:02:00,76.0,48.0,-100.00,North,355,4.0,13.0,37,0.00,,,0.00,178.000000,,2013-06-07 03:02:00,
2013-06-06 20:12:00,76.0,48.0,-100.00,North,355,4.0,13.0,37,0.00,,,0.00,178.000000,,2013-06-07 03:12:00,
2013-06-06 20:22:00,76.0,48.0,-100.00,North,355,4.0,13.0,37,0.00,,,0.00,178.000000,,2013-06-07 03:22:00,
2013-06-06 20:44:00,70.0,49.0,-100.00,North,7,3.0,11.0,47,0.00,,,0.00,53.000000,,2013-06-07 03:44:00,
2013-06-06 20:53:00,70.0,49.0,-100.00,North,7,3.0,11.0,47,0.00,,,0.00,53.000000,,2013-06-07 03:53:00,
2013-06-06 21:03:00,70.0,49.0,-100.00,North,7,3.0,11.0,47,0.00,,,0.00,53.000000,,2013-06-07 04:03:00,
2013-06-06 21:12:00,70.0,49.0,-100.00,North,7,3.0,11.0,47,0.00,,,0.00,53.000000,,2013-06-07 04:12:00,
2013-06-06 21:22:00,70.0,49.0,-100.00,North,7,3.0,11.0,47,0.00,,,0.00,53.000000,,2013-06-07 04:22:00,
2013-06-06 21:53:00,66.0,51.0,-100.00,East,98,0.0,7.0,58,0.00,,,0.00,4.000000,,2013-06-07 04:53:00,
2013-06-06 22:02:00,66.0,51.0,-100.00,East,98,0.0,7.0,58,0.00,,,0.00,4.000000,,2013-06-07 05:02:00,
2013-06-06 22:12:00,66.0,51.0,-100.00,East,98,0.0,7.0,58,0.00,,,0.00,4.000000,,2013-06-07 05:12:00,
2013-06-06 22:22:00,66.0,51.0,-100.00,East,98,0.0,7.0,58,0.00,,,0.00,4.000000,,2013-06-07 05:22:00,
2013-06-06 22:42:00,63.0,50.0,-100.00,ENE,65,2.0,3.0,63,0.00,,,-99.99,1.000000,,2013-06-07 05:42:00,
2013-06-06 22:52:00,63.0,50.0,-100.00,ENE,65,2.0,3.0,63,0.00,,,-99.99,1.000000,,2013-06-07 05:52:00,
2013-06-06 23:02:00,63.0,50.0,-100.00,ENE,65,2.0,3.0,63,0.00,,,-99.99,1.000000,,2013-06-07 06:02:00,
2013-06-06 23:12:00,63.0,50.0,-100.00,ENE,65,2.0,3.0,63,0.00,,,-99.99,1.000000,,2013-06-07 06:12:00,
2013-06-06 23:21:00,63.0,50.0,-100.00,ENE,65,2.0,3.0,63,0.00,,,-99.99,1.000000,,2013-06-07 06:21:00,
2013-06-06 23:52:00,60.0,50.0,-100.00,East,84,4.0,6.0,70,0.00,,,0.00,1.000000,,2013-06-07 06:52:00,